QPF
0.00 0.00 0.00 0.00 0.00 0.00 0.00 0.00 0.01 0.02 0.03 0.04 0.04 0.03 0.03 0.04 0.05 0.09 0.05 0.01 0.01 0.02 0.06 0.09 0.05 0.02 0.01 0.01 0.01 0.01 0.00 0.00 0.00 0.00 0.01 0.01 0.01 0.01 0.01 0.01 0.01 0.01 0.01 0.01 0.01 0.01 0.01 0.01 0.01
0.00 0.00 0.00 0.00 0.00 0.00 0.00 0.00 0.01 0.02 0.04 0.06 0.05 0.06 0.09 0.11 0.10 0.06 0.02 0.01 0.01 0.02 0.06 0.06 0.05 0.03 0.01 0.01 0.01 0.01 0.00 0.00 0.00 0.00 0.00 0.00 0.01 0.00 0.01 0.01 0.01 0.01 0.01 0.01 0.02 0.02 0.02 0.02 0.02
0.00 0.00 0.00 0.00 0.00 0.00 0.00 0.01 0.02 0.03 0.04 0.05 0.06 0.06 0.05 0.06 0.05 0.03 0.01 0.01 0.03 0.04 0.05 0.05 0.03 0.02 0.01 0.01 0.01 0.01 0.00 0.00 0.00 0.00 0.00 0.01 0.01 0.01 0.01 0.01 0.01 0.02 0.03 0.03 0.02 0.02 0.01 0.01 0.02
0.00 0.00 0.00 0.00 0.00 0.00 0.00 0.01 0.02 0.04 0.05 0.03 0.04 0.05 0.03 0.03 0.03 0.02 0.01 0.01 0.02 0.04 0.03 0.03 0.01 0.01 0.01 0.01 0.01 0.00 0.00 0.00 0.00 0.00 0.01 0.01 0.01 0.01 0.01 0.02 0.02 0.03 0.03 0.03 0.02 0.01 0.01 0.01 0.01
0.00 0.00 0.00 0.00 0.01 0.01 0.00 0.01 0.03 0.05 0.04 0.03 0.04 0.05 0.04 0.04 0.03 0.01 0.00 0.01 0.01 0.01 0.02 0.02 0.02 0.02 0.02 0.01 0.01 0.00 0.00 0.00 0.00 0.00 0.01 0.00 0.01 0.01 0.02 0.03 0.03 0.03 0.03 0.02 0.02 0.02 0.02 0.01 0.01
0.00 0.00 0.00 0.00 0.01 0.01 0.01 0.02 0.04 0.03 0.03 0.02 0.04 0.05 0.06 0.05 0.04 0.02 0.01 0.01 0.01 0.02 0.02 0.02 0.02 0.02 0.02 0.01 0.01 0.00 0.00 0.00 0.00 0.00 0.00 0.00 0.01 0.02 0.03 0.04 0.04 0.04 0.03 0.03 0.02 0.02 0.02 0.02 0.01
0.00 0.00 0.00 0.00 0.01 0.01 0.01 0.02 0.04 0.03 0.02 0.02 0.02 0.05 0.06 0.05 0.04 0.02 0.01 0.01 0.01 0.01 0.01 0.02 0.02 0.02 0.02 0.01 0.01 0.01 0.00 0.01 0.00 0.00 0.01 0.02 0.02 0.03 0.03 0.03 0.03 0.03 0.03 0.03 0.02 0.02 0.03 0.02 0.02
0.00 0.00 0.00 0.00 0.00 0.01 0.02 0.02 0.03 0.03 0.03 0.01 0.02 0.04 0.08 0.05 0.03 0.02 0.01 0.01 0.01 0.01 0.01 0.01 0.01 0.01 0.01 0.02 0.02 0.02 0.01 0.01 0.01 0.01 0.01 0.02 0.02 0.02 0.02 0.03 0.03 0.03 0.03 0.03 0.03 0.02 0.02 0.02 0.02
0.00 0.00 0.00 0.00 0.00 0.00 0.01 0.02 0.03 0.04 0.04 0.04 0.04 0.03 0.03 0.03 0.02 0.01 0.01 0.01 0.02 0.01 0.01 0.01 0.01 0.01 0.01 0.02 0.03 0.04 0.03 0.02 0.02 0.02 0.02 0.02 0.02 0.02 0.03 0.03 0.02 0.03 0.03 0.03 0.04 0.03 0.03 0.03 0.03
0.00 0.00 0.00 0.00 0.00 0.00 0.01 0.02 0.05 0.08 0.10 0.09 0.07 0.06 0.05 0.02 0.02 0.02 0.02 0.02 0.02 0.02 0.02 0.01 0.02 0.02 0.01 0.01 0.02 0.02 0.02 0.01 0.01 0.01 0.01 0.01 0.01 0.01 0.02 0.02 0.03 0.04 0.04 0.05 0.06 0.07 0.06 0.05 0.04
0.00 0.00 0.00 0.00 0.00 0.01 0.01 0.02 0.03 0.05 0.08 0.09 0.11 0.06 0.05 0.03 0.03 0.04 0.03 0.03 0.02 0.02 0.02 0.02 0.01 0.02 0.02 0.01 0.01 0.01 0.01 0.01 0.02 0.02 0.02 0.02 0.01 0.01 0.01 0.01 0.01 0.02 0.03 0.03 0.04 0.05 0.05 0.05 0.04
0.00 0.00 0.00 0.00 0.00 0.01 0.02 0.03 0.05 0.07 0.07 0.06 0.07 0.04 0.03 0.04 0.05 0.04 0.03 0.02 0.02 0.03 0.04 0.02 0.01 0.01 0.01 0.01 0.01 0.01 0.01 0.01 0.02 0.02 0.03 0.03 0.02 0.02 0.01 0.02 0.02 0.02 0.03 0.03 0.03 0.04 0.05 0.06 0.05
0.00 0.00 0.00 0.00 0.01 0.01 0.01 0.02 0.03 0.04 0.06 0.09 0.07 0.05 0.05 0.06 0.06 0.04 0.03 0.03 0.05 0.05 0.03 0.03 0.03 0.02 0.01 0.01 0.01 0.01 0.01 0.01 0.01 0.02 0.02 0.03 0.02 0.02 0.03 0.04 0.04 0.03 0.03 0.03 0.04 0.05 0.05 0.05 0.05
0.00 0.00 0.00 0.01 0.01 0.01 0.01 0.01 0.01 0.02 0.04 0.07 0.10 0.09 0.07 0.06 0.06 0.03 0.02 0.03 0.07 0.09 0.06 0.06 0.06 0.04 0.03 0.03 0.03 0.03 0.03 0.02 0.02 0.02 0.03 0.03 0.03 0.03 0.04 0.04 0.04 0.03 0.04 0.04 0.04 0.04 0.05 0.04 0.04
0.00 0.01 0.01 0.01 0.01 0.01 0.01 0.01 0.01 0.01 0.02 0.03 0.08 0.13 0.09 0.08 0.06 0.03 0.02 0.03 0.04 0.06 0.06 0.07 0.07 0.07 0.09 0.09 0.09 0.07 0.05 0.05 0.04 0.04 0.04 0.04 0.04 0.03 0.03 0.02 0.03 0.03 0.04 0.05 0.04 0.03 0.03 0.03 0.04
0.01 0.01 0.01 0.01 0.01 0.01 0.01 0.01 0.01 0.01 0.03 0.04 0.06 0.12 0.13 0.09 0.06 0.03 0.02 0.02 0.03 0.04 0.05 0.08 0.11 0.10 0.11 0.14 0.15 0.10 0.06 0.06 0.06 0.05 0.06 0.05 0.05 0.05 0.05 0.04 0.03 0.04 0.04 0.05 0.04 0.04 0.03 0.03 0.03
0.01 0.01 0.01 0.01 0.01 0.00 0.00 0.01 0.01 0.02 0.03 0.04 0.04 0.07 0.11 0.08 0.05 0.05 0.05 0.04 0.07 0.07 0.07 0.08 0.09 0.09 0.10 0.08 0.08 0.07 0.05 0.04 0.04 0.04 0.05 0.07 0.07 0.06 0.06 0.06 0.06 0.06 0.06 0.05 0.03 0.03 0.03 0.03 0.03
0.00 0.00 0.01 0.01 0.01 0.01 0.00 0.00 0.01 0.02 0.02 0.03 0.03 0.03 0.05 0.05 0.05 0.06 0.07 0.07 0.11 0.12 0.11 0.10 0.11 0.11 0.11 0.09 0.08 0.07 0.06 0.06 0.06 0.06 0.08 0.08 0.07 0.07 0.07 0.07 0.07 0.06 0.06 0.05 0.04 0.03 0.03 0.03 0.02
0.00 0.00 0.00 0.01 0.01 0.01 0.00 0.00 0.01 0.01 0.02 0.02 0.02 0.02 0.03 0.04 0.04 0.05 0.06 0.07 0.09 0.09 0.09 0.10 0.11 0.13 0.14 0.13 0.11 0.09 0.08 0.09 0.08 0.07 0.07 0.08 0.07 0.06 0.06 0.06 0.07 0.07 0.06 0.04 0.04 0.03 0.02 0.02 0.02
0.00 0.00 0.00 0.01 0.01 0.00 0.00 0.00 0.01 0.01 0.02 0.02 0.02 0.02 0.03 0.03 0.02 0.03 0.03 0.04 0.06 0.08 0.09 0.09 0.10 0.13 0.15 0.15 0.15 0.13 0.11 0.09 0.09 0.09 0.08 0.07 0.07 0.06 0.06 0.06 0.06 0.06 0.05 0.04 0.04 0.03 0.02 0.01 0.02
0.00 0.00 0.00 0.01 0.01 0.00 0.00 0.00 0.01 0.01 0.02 0.01 0.01 0.02 0.02 0.02 0.02 0.02 0.04 0.06 0.08 0.08 0.07 0.08 0.10 0.12 0.13 0.16 0.18 0.14 0.11 0.09 0.08 0.07 0.08 0.09 0.09 0.08 0.06 0.05 0.05 0.05 0.04 0.04 0.04 0.03 0.02 0.01 0.02
0.00 0.00 0.00 0.01 0.01 0.01 0.00 0.00 0.01 0.01 0.01 0.01 0.01 0.01 0.01 0.02 0.02 0.02 0.03 0.06 0.07 0.05 0.06 0.08 0.10 0.14 0.13 0.14 0.16 0.15 0.12 0.10 0.09 0.09 0.08 0.08 0.08 0.06 0.05 0.05 0.04 0.04 0.03 0.03 0.02 0.01 0.01 0.00 0.01
0.00 0.00 0.00 0.01 0.01 0.01 0.01 0.00 0.00 0.00 0.01 0.01 0.01 0.01 0.01 0.01 0.01 0.02 0.03 0.05 0.06 0.07 0.06 0.08 0.13 0.17 0.16 0.13 0.13 0.16 0.13 0.12 0.11 0.10 0.08 0.07 0.06 0.06 0.05 0.03 0.03 0.03 0.02 0.02 0.02 0.01 0.01 0.00 0.00
0.00 0.00 0.00 0.01 0.01 0.01 0.00 0.00 0.00 0.00 0.00 0.01 0.00 0.01 0.01 0.01 0.02 0.02 0.02 0.03 0.05 0.06 0.09 0.11 0.15 0.16 0.15 0.12 0.10 0.13 0.12 0.12 0.10 0.09 0.09 0.08 0.07 0.05 0.03 0.02 0.04 0.05 0.05 0.06 0.04 0.02 0.01 0.00 0.00
0.01 0.01 0.01 0.01 0.01 0.00 0.00 0.00 0.00 0.00 0.00 0.01 0.00 0.01 0.01 0.02 0.02 0.02 0.03 0.02 0.03 0.05 0.09 0.12 0.13 0.12 0.11 0.11 0.11 0.11 0.10 0.10 0.08 0.07 0.06 0.05 0.04 0.03 0.03 0.03 0.04 0.05 0.04 0.03 0.02 0.01 0.00 0.00 0.00
0.01 0.01 0.01 0.01 0.02 0.01 0.01 0.01 0.01 0.01 0.02 0.02 0.01 0.01 0.01 0.02 0.02 0.02 0.02 0.02 0.03 0.04 0.06 0.08 0.10 0.09 0.10 0.11 0.10 0.08 0.08 0.08 0.07 0.06 0.05 0.05 0.04 0.04 0.03 0.03 0.02 0.02 0.02 0.02 0.01 0.00 0.00 0.00 0.00
0.01 0.02 0.01 0.01 0.01 0.01 0.02 0.02 0.02 0.02 0.02 0.02 0.01 0.01 0.01 0.02 0.02 0.02 0.03 0.04 0.04 0.04 0.04 0.05 0.06 0.06 0.07 0.07 0.07 0.07 0.06 0.05 0.06 0.06 0.05 0.05 0.05 0.04 0.04 0.03 0.03 0.02 0.02 0.02 0.01 0.01 0.00 0.00 0.00
0.01 0.02 0.01 0.01 0.01 0.01 0.01 0.02 0.02 0.02 0.02 0.02 0.02 0.01 0.01 0.02 0.02 0.03 0.05 0.05 0.04 0.04 0.04 0.04 0.04 0.04 0.04 0.04 0.04 0.04 0.05 0.06 0.06 0.06 0.05 0.05 0.04 0.04 0.05 0.06 0.04 0.02 0.02 0.02 0.02 0.01 0.01 0.00 0.00
0.02 0.02 0.01 0.01 0.01 0.01 0.01 0.02 0.04 0.04 0.02 0.02 0.05 0.04 0.03 0.04 0.04 0.04 0.04 0.04 0.04 0.04 0.04 0.04 0.05 0.05 0.05 0.04 0.04 0.03 0.04 0.04 0.04 0.03 0.04 0.04 0.04 0.04 0.04 0.06 0.06 0.04 0.03 0.02 0.02 0.01 0.01 0.01 0.01
0.02 0.01 0.01 0.01 0.01 0.01 0.01 0.01 0.02 0.03 0.02 0.02 0.03 0.04 0.04 0.04 0.05 0.05 0.04 0.04 0.03 0.03 0.03 0.03 0.03 0.04 0.05 0.05 0.05 0.04 0.03 0.02 0.02 0.03 0.03 0.03 0.05 0.05 0.04 0.05 0.06 0.05 0.03 0.02 0.02 0.02 0.01 0.01 0.01
MSLP
1010.84 1011.74 1012.71 1013.62 1014.34 1014.78 1014.93 1014.86 1014.63 1014.35 1014.12 1013.97 1013.90 1013.86 1013.78 1013.58 1013.21 1012.69 1012.06 1011.41 1010.85 1010.47 1010.33 1010.44 1010.78 1011.25 1011.77 1012.26 1012.65 1012.94 1013.13 1013.27 1013.43 1013.64 1013.93 1014.30 1014.71 1015.13 1015.50 1015.79 1015.99 1016.10 1016.15 1016.17 1016.18 1016.22 1016.28 1016.36 1016.45
1011.38 1012.41 1013.45 1014.32 1014.92 1015.18 1015.13 1014.84 1014.42 1013.99 1013.65 1013.43 1013.32 1013.25 1013.16 1012.95 1012.59 1012.07 1011.47 1010.87 1010.38 1010.09 1010.05 1010.26 1010.68 1011.23 1011.81 1012.34 1012.77 1013.08 1013.30 1013.48 1013.66 1013.89 1014.20 1014.56 1014.94 1015.32 1015.64 1015.88 1016.04 1016.12 1016.16 1016.19 1016.22 1016.27 1016.35 1016.43 1016.50
1011.99 1013.11 1014.13 1014.91 1015.34 1015.39 1015.12 1014.61 1014.02 1013.46 1013.03 1012.77 1012.64 1012.58 1012.50 1012.31 1011.98 1011.51 1010.98 1010.46 1010.07 1009.88 1009.94 1010.25 1010.74 1011.34 1011.96 1012.50 1012.94 1013.27 1013.51 1013.70 1013.91 1014.16 1014.45 1014.79 1015.14 1015.46 1015.72 1015.90 1016.02 1016.09 1016.13 1016.17 1016.23 1016.31 1016.40 1016.49 1016.55
1012.64 1013.77 1014.72 1015.35 1015.58 1015.41 1014.92 1014.23 1013.49 1012.84 1012.36 1012.09 1011.98 1011.95 1011.90 1011.77 1011.50 1011.11 1010.67 1010.26 1009.98 1009.91 1010.06 1010.44 1010.98 1011.60 1012.21 1012.74 1013.16 1013.48 1013.72 1013.93 1014.15 1014.40 1014.69 1015.00 1015.30 1015.56 1015.76 1015.90 1015.98 1016.04 1016.09 1016.16 1016.26 1016.37 1016.48 1016.58 1016.64
1013.25 1014.33 1015.16 1015.61 1015.64 1015.26 1014.58 1013.75 1012.91 1012.22 1011.74 1011.49 1011.41 1011.43 1011.45 1011.38 1011.20 1010.91 1010.58 1010.30 1010.14 1010.17 1010.41 1010.83 1011.38 1011.97 1012.53 1013.01 1013.39 1013.67 1013.90 1014.12 1014.35 1014.61 1014.90 1015.19 1015.45 1015.66 1015.81 1015.90 1015.96 1016.01 1016.08 1016.18 1016.31 1016.46 1016.60 1016.70 1016.75
1013.76 1014.74 1015.42 1015.69 1015.52 1014.97 1014.16 1013.24 1012.36 1011.67 1011.22 1011.01 1010.99 1011.07 1011.15 1011.16 1011.07 1010.90 1010.69 1010.54 1010.50 1010.62 1010.91 1011.35 1011.86 1012.39 1012.87 1013.26 1013.57 1013.81 1014.02 1014.24 1014.48 1014.76 1015.06 1015.34 1015.59 1015.76 1015.87 1015.92 1015.96 1016.00 1016.09 1016.21 1016.38 1016.55 1016.71 1016.82 1016.86
1014.11 1014.96 1015.47 1015.56 1015.24 1014.57 1013.68 1012.74 1011.88 1011.23 1010.83 1010.68 1010.72 1010.85 1010.98 1011.06 1011.06 1010.99 1010.90 1010.87 1010.94 1011.14 1011.46 1011.88 1012.34 1012.78 1013.15 1013.45 1013.67 1013.86 1014.05 1014.27 1014.55 1014.86 1015.18 1015.47 1015.70 1015.85 1015.93 1015.96 1015.97 1016.01 1016.09 1016.23 1016.41 1016.60 1016.77 1016.88 1016.92
1014.28 1014.97 1015.31 1015.26 1014.82 1014.08 1013.18 1012.27 1011.46 1010.88 1010.55 1010.45 1010.52 1010.68 1010.86 1010.98 1011.05 1011.07 1011.10 1011.17 1011.33 1011.60 1011.95 1012.34 1012.73 1013.08 1013.34 1013.54 1013.69 1013.83 1014.00 1014.24 1014.54 1014.88 1015.24 1015.55 1015.78 1015.92 1015.98 1015.97 1015.96 1015.97 1016.05 1016.18 1016.36 1016.56 1016.73 1016.84 1016.87
1014.24 1014.77 1014.96 1014.79 1014.28 1013.53 1012.67 1011.82 1011.09 1010.59 1010.31 1010.25 1010.33 1010.50 1010.68 1010.83 1010.95 1011.05 1011.16 1011.34 1011.59 1011.91 1012.28 1012.66 1013.00 1013.26 1013.43 1013.54 1013.62 1013.73 1013.89 1014.14 1014.47 1014.85 1015.23 1015.56 1015.80 1015.93 1015.96 1015.93 1015.89 1015.88 1015.92 1016.04 1016.20 1016.39 1016.55 1016.66 1016.69
1014.01 1014.39 1014.45 1014.20 1013.66 1012.94 1012.14 1011.38 1010.74 1010.31 1010.07 1010.02 1010.09 1010.23 1010.39 1010.54 1010.69 1010.85 1011.05 1011.31 1011.64 1012.03 1012.44 1012.81 1013.12 1013.32 1013.44 1013.49 1013.53 1013.60 1013.76 1014.01 1014.36 1014.76 1015.16 1015.50 1015.74 1015.86 1015.87 1015.82 1015.74 1015.70 1015.71 1015.79 1015.93 1016.10 1016.25 1016.35 1016.39
1013.65 1013.89 1013.84 1013.53 1013.00 1012.33 1011.61 1010.95 1010.40 1010.02 1009.81 1009.74 1009.77 1009.86 1009.98 1010.12 1010.28 1010.48 1010.75 1011.10 1011.51 1011.97 1012.42 1012.82 1013.12 1013.31 1013.40 1013.42 1013.44 1013.50 1013.64 1013.89 1014.24 1014.64 1015.03 1015.36 1015.59 1015.70 1015.70 1015.63 1015.53 1015.45 1015.44 1015.49 1015.60 1015.74 1015.87 1015.96 1016.00
1013.23 1013.34 1013.21 1012.87 1012.35 1011.75 1011.12 1010.55 1010.08 1009.74 1009.53 1009.42 1009.40 1009.43 1009.51 1009.62 1009.78 1010.02 1010.35 1010.76 1011.25 1011.77 1012.27 1012.71 1013.04 1013.25 1013.35 1013.38 1013.39 1013.44 1013.57 1013.80 1014.12 1014.49 1014.85 1015.16 1015.37 1015.47 1015.46 1015.38 1015.28 1015.19 1015.16 1015.18 1015.27 1015.38 1015.49 1015.57 1015.60
1012.84 1012.84 1012.64 1012.28 1011.80 1011.26 1010.72 1010.23 1009.81 1009.50 1009.27 1009.13 1009.05 1009.02 1009.05 1009.13 1009.29 1009.55 1009.92 1010.39 1010.93 1011.51 1012.07 1012.55 1012.93 1013.17 1013.31 1013.36 1013.39 1013.43 1013.54 1013.74 1014.00 1014.32 1014.63 1014.90 1015.09 1015.18 1015.19 1015.12 1015.04 1014.96 1014.93 1014.95 1015.01 1015.10 1015.19 1015.25 1015.26
1012.55 1012.45 1012.20 1011.83 1011.39 1010.92 1010.46 1010.03 1009.66 1009.36 1009.12 1008.94 1008.80 1008.72 1008.70 1008.76 1008.92 1009.19 1009.57 1010.07 1010.64 1011.25 1011.84 1012.36 1012.79 1013.08 1013.27 1013.37 1013.42 1013.47 1013.55 1013.70 1013.90 1014.15 1014.40 1014.62 1014.78 1014.88 1014.91 1014.89 1014.86 1014.82 1014.82 1014.85 1014.91 1014.97 1015.03 1015.06 1015.04
1012.39 1012.22 1011.94 1011.58 1011.19 1010.78 1010.38 1010.01 1009.67 1009.37 1009.11 1008.89 1008.71 1008.59 1008.54 1008.58 1008.73 1008.99 1009.37 1009.85 1010.42 1011.02 1011.61 1012.15 1012.61 1012.96 1013.20 1013.35 1013.44 1013.50 1013.57 1013.67 1013.81 1013.98 1014.17 1014.34 1014.50 1014.61 1014.69 1014.73 1014.76 1014.80 1014.84 1014.90 1014.96 1015.01 1015.05 1015.04 1014.97
1012.35 1012.13 1011.83 1011.51 1011.17 1010.84 1010.50 1010.18 1009.86 1009.55 1009.26 1009.00 1008.80 1008.65 1008.58 1008.61 1008.74 1008.98 1009.33 1009.77 1010.28 1010.83 1011.39 1011.92 1012.39 1012.77 1013.07 1013.28 1013.42 1013.51 1013.58 1013.64 1013.73 1013.84 1013.97 1014.11 1014.26 1014.40 1014.53 1014.66 1014.78 1014.88 1014.99 1015.08 1015.16 1015.20 1015.20 1015.15 1015.04
1012.35 1012.11 1011.85 1011.59 1011.33 1011.07 1010.80 1010.50 1010.19 1009.87 1009.55 1009.26 1009.02 1008.86 1008.78 1008.81 1008.92 1009.14 1009.44 1009.80 1010.23 1010.69 1011.18 1011.65 1012.11 1012.51 1012.85 1013.12 1013.32 1013.46 1013.55 1013.61 1013.67 1013.74 1013.83 1013.95 1014.10 1014.28 1014.47 1014.67 1014.87 1015.06 1015.22 1015.35 1015.44 1015.48 1015.46 1015.37 1015.22
1012.30 1012.09 1011.90 1011.74 1011.59 1011.42 1011.21 1010.95 1010.63 1010.27 1009.91 1009.58 1009.32 1009.14 1009.07 1009.10 1009.21 1009.40 1009.64 1009.92 1010.24 1010.59 1010.97 1011.37 1011.78 1012.18 1012.56 1012.89 1013.16 1013.36 1013.50 1013.59 1013.65 1013.71 1013.79 1013.90 1014.06 1014.26 1014.51 1014.77 1015.04 1015.28 1015.49 1015.65 1015.75 1015.78 1015.75 1015.63 1015.45
1012.10 1011.98 1011.92 1011.90 1011.89 1011.83 1011.69 1011.45 1011.10 1010.70 1010.28 1009.89 1009.60 1009.41 1009.35 1009.39 1009.52 1009.70 1009.89 1010.10 1010.32 1010.55 1010.80 1011.11 1011.45 1011.84 1012.23 1012.62 1012.97 1013.25 1013.47 1013.61 1013.71 1013.78 1013.86 1013.97 1014.14 1014.36 1014.63 1014.93 1015.23 1015.51 1015.75 1015.92 1016.03 1016.05 1016.00 1015.88 1015.69
1011.70 1011.72 1011.85 1012.02 1012.17 1012.24 1012.17 1011.93 1011.55 1011.07 1010.56 1010.11 1009.78 1009.59 1009.55 1009.63 1009.79 1009.99 1010.18 1010.33 1010.46 1010.58 1010.73 1010.93 1011.20 1011.55 1011.96 1012.40 1012.82 1013.19 1013.49 1013.71 1013.85 1013.96 1014.06 1014.18 1014.34 1014.56 1014.83 1015.14 1015.44 1015.73 1015.96 1016.13 1016.22 1016.24 1016.20 1016.08 1015.91
1011.11 1011.33 1011.68 1012.08 1012.42 1012.62 1012.60 1012.36 1011.91 1011.33 1010.73 1010.20 1009.81 1009.62 1009.62 1009.76 1010.00 1010.25 1010.47 1010.62 1010.71 1010.75 1010.80 1010.91 1011.11 1011.42 1011.82 1012.29 1012.77 1013.22 1013.60 1013.90 1014.11 1014.26 1014.38 1014.50 1014.66 1014.85 1015.10 1015.37 1015.65 1015.90 1016.11 1016.26 1016.33 1016.35 1016.30 1016.21 1016.07
1010.44 1010.88 1011.47 1012.10 1012.64 1012.95 1012.99 1012.71 1012.18 1011.49 1010.77 1010.14 1009.71 1009.52 1009.56 1009.80 1010.14 1010.50 1010.79 1010.99 1011.08 1011.09 1011.08 1011.11 1011.24 1011.50 1011.88 1012.36 1012.88 1013.39 1013.84 1014.21 1014.48 1014.66 1014.80 1014.91 1015.04 1015.20 1015.40 1015.62 1015.84 1016.04 1016.20 1016.31 1016.37 1016.37 1016.33 1016.26 1016.16
1009.82 1010.49 1011.32 1012.17 1012.86 1013.28 1013.33 1013.01 1012.37 1011.55 1010.70 1009.98 1009.50 1009.31 1009.42 1009.76 1010.24 1010.73 1011.15 1011.44 1011.58 1011.60 1011.56 1011.54 1011.61 1011.82 1012.16 1012.62 1013.16 1013.70 1014.20 1014.61 1014.91 1015.12 1015.26 1015.36 1015.45 1015.57 1015.70 1015.85 1016.01 1016.15 1016.26 1016.33 1016.35 1016.34 1016.31 1016.26 1016.19
1009.43 1010.29 1011.32 1012.33 1013.14 1013.61 1013.64 1013.25 1012.50 1011.54 1010.57 1009.76 1009.23 1009.06 1009.24 1009.70 1010.33 1010.98 1011.55 1011.96 1012.18 1012.24 1012.21 1012.17 1012.19 1012.34 1012.64 1013.07 1013.59 1014.13 1014.63 1015.06 1015.38 1015.59 1015.71 1015.79 1015.84 1015.90 1015.97 1016.06 1016.15 1016.23 1016.29 1016.32 1016.32 1016.29 1016.25 1016.21 1016.16
1009.40 1010.38 1011.52 1012.63 1013.49 1013.94 1013.92 1013.43 1012.56 1011.49 1010.41 1009.52 1008.97 1008.83 1009.08 1009.66 1010.43 1011.24 1011.96 1012.51 1012.83 1012.96 1012.96 1012.91 1012.91 1013.01 1013.26 1013.64 1014.11 1014.62 1015.10 1015.51 1015.81 1016.00 1016.10 1016.14 1016.15 1016.16 1016.17 1016.21 1016.26 1016.30 1016.32 1016.31 1016.28 1016.24 1016.18 1016.12 1016.06
1009.76 1010.78 1011.95 1013.04 1013.86 1014.25 1014.14 1013.54 1012.56 1011.38 1010.23 1009.30 1008.75 1008.64 1008.97 1009.65 1010.55 1011.50 1012.36 1013.02 1013.45 1013.66 1013.70 1013.67 1013.65 1013.72 1013.92 1014.24 1014.66 1015.11 1015.55 1015.91 1016.17 1016.32 1016.38 1016.38 1016.35 1016.32 1016.30 1016.30 1016.32 1016.33 1016.33 1016.31 1016.26 1016.19 1016.10 1016.01 1015.91
1010.47 1011.43 1012.51 1013.50 1014.20 1014.46 1014.22 1013.51 1012.45 1011.22 1010.03 1009.10 1008.57 1008.51 1008.91 1009.67 1010.67 1011.72 1012.69 1013.45 1013.97 1014.25 1014.35 1014.34 1014.33 1014.39 1014.55 1014.82 1015.17 1015.56 1015.93 1016.23 1016.43 1016.53 1016.54 1016.50 1016.43 1016.37 1016.33 1016.32 1016.33 1016.34 1016.34 1016.31 1016.25 1016.15 1016.02 1015.87 1015.72
1011.38 1012.18 1013.07 1013.86 1014.37 1014.47 1014.09 1013.29 1012.18 1010.94 1009.78 1008.90 1008.43 1008.44 1008.90 1009.72 1010.78 1011.89 1012.91 1013.74 1014.32 1014.66 1014.81 1014.85 1014.86 1014.92 1015.06 1015.30 1015.60 1015.92 1016.22 1016.45 1016.58 1016.62 1016.58 1016.50 1016.40 1016.33 1016.28 1016.28 1016.30 1016.33 1016.34 1016.31 1016.24 1016.11 1015.94 1015.73 1015.50
1012.28 1012.83 1013.46 1013.99 1014.26 1014.17 1013.67 1012.80 1011.70 1010.51 1009.45 1008.68 1008.31 1008.40 1008.92 1009.79 1010.86 1011.98 1013.02 1013.87 1014.48 1014.87 1015.07 1015.15 1015.20 1015.29 1015.44 1015.65 1015.92 1016.19 1016.42 1016.58 1016.65 1016.63 1016.54 1016.42 1016.30 1016.22 1016.19 1016.20 1016.24 1016.29 1016.32 1016.30 1016.22 1016.07 1015.85 1015.58 1015.27
1012.93 1013.20 1013.53 1013.76 1013.79 1013.51 1012.91 1012.03 1010.99 1009.93 1009.02 1008.40 1008.17 1008.37 1008.96 1009.85 1010.91 1012.02 1013.03 1013.86 1014.48 1014.89 1015.13 1015.27 1015.37 1015.49 1015.66 1015.88 1016.12 1016.35 1016.54 1016.64 1016.64 1016.57 1016.45 1016.30 1016.17 1016.09 1016.06 1016.10 1016.16 1016.24 1016.28 1016.27 1016.18 1016.01 1015.74 1015.42 1015.04
Thickness
5788 5788 5786 5777 5756 5736 5738 5753 5765 5772 5777 5786 5789 5786 5779 5773 5767 5765 5786 5796 5794 5790 5786 5782 5779 5775 5773 5771 5769 5766 5764 5762 5759 5757 5755 5753 5751 5749 5747 5745 5743 5741 5740 5738 5737 5735 5734 5733 5732
5786 5785 5777 5762 5739 5724 5736 5756 5764 5773 5782 5788 5789 5787 5779 5777 5784 5785 5789 5792 5792 5789 5784 5780 5777 5774 5770 5768 5765 5763 5761 5759 5756 5754 5752 5750 5748 5746 5744 5742 5740 5738 5736 5735 5734 5732 5731 5730 5729
5785 5782 5764 5747 5733 5729 5744 5763 5769 5778 5786 5786 5782 5784 5781 5779 5785 5787 5791 5792 5789 5785 5782 5778 5774 5771 5768 5765 5763 5761 5758 5756 5753 5751 5749 5747 5744 5742 5740 5739 5737 5735 5733 5732 5731 5729 5728 5727 5726
5779 5767 5755 5739 5737 5744 5755 5768 5774 5775 5781 5785 5781 5776 5782 5790 5790 5791 5792 5790 5785 5781 5778 5775 5772 5769 5766 5763 5760 5758 5755 5753 5750 5748 5746 5743 5741 5739 5737 5735 5733 5732 5730 5728 5727 5726 5725 5724 5723
5771 5754 5739 5728 5738 5751 5764 5773 5777 5773 5776 5781 5779 5772 5774 5787 5793 5791 5789 5787 5783 5778 5776 5772 5770 5766 5763 5760 5757 5755 5752 5749 5747 5745 5743 5740 5738 5736 5734 5732 5730 5728 5727 5725 5723 5722 5721 5720 5719
5753 5743 5724 5722 5738 5754 5766 5775 5776 5774 5775 5779 5776 5770 5772 5784 5787 5785 5785 5782 5780 5776 5772 5769 5766 5763 5760 5757 5754 5751 5749 5746 5744 5742 5739 5736 5734 5732 5730 5728 5726 5724 5723 5721 5720 5718 5717 5717 5716
5745 5733 5726 5732 5738 5749 5766 5775 5773 5771 5771 5775 5779 5767 5770 5777 5782 5783 5780 5777 5775 5772 5768 5765 5762 5759 5755 5753 5750 5748 5745 5743 5740 5738 5736 5733 5731 5728 5726 5724 5722 5721 5719 5718 5716 5715 5713 5713 5712
5751 5736 5731 5731 5738 5749 5767 5772 5775 5773 5771 5782 5780 5767 5766 5775 5778 5777 5774 5770 5768 5765 5763 5760 5758 5755 5752 5749 5746 5744 5741 5739 5737 5734 5732 5729 5727 5725 5722 5720 5719 5717 5716 5714 5713 5711 5710 5709 5708
5754 5728 5722 5734 5741 5753 5766 5766 5772 5779 5775 5777 5779 5777 5779 5778 5775 5769 5765 5762 5760 5759 5757 5756 5754 5751 5749 5746 5743 5740 5737 5735 5732 5730 5728 5725 5723 5720 5718 5716 5714 5713 5711 5710 5709 5707 5706 5705 5704
5742 5723 5734 5748 5755 5759 5763 5765 5768 5769 5766 5768 5771 5776 5778 5774 5769 5763 5759 5756 5754 5754 5753 5752 5750 5748 5745 5742 5739 5736 5733 5730 5728 5725 5723 5721 5718 5716 5713 5711 5709 5708 5707 5705 5704 5703 5702 5701 5701
5744 5736 5746 5755 5763 5764 5762 5764 5770 5764 5757 5765 5768 5770 5770 5766 5763 5760 5758 5756 5753 5752 5750 5748 5746 5744 5741 5738 5735 5731 5728 5725 5723 5721 5719 5716 5713 5710 5708 5706 5704 5703 5701 5700 5699 5699 5698 5697 5696
5743 5748 5753 5759 5766 5764 5762 5763 5763 5762 5766 5775 5776 5773 5767 5762 5759 5758 5755 5753 5751 5749 5747 5745 5743 5740 5736 5733 5730 5727 5724 5721 5718 5716 5713 5711 5707 5705 5703 5701 5699 5698 5696 5695 5695 5694 5693 5692 5692
5742 5748 5756 5760 5761 5761 5762 5759 5760 5763 5772 5775 5773 5768 5763 5760 5758 5757 5755 5752 5749 5745 5743 5742 5740 5736 5733 5730 5726 5723 5720 5717 5715 5712 5709 5706 5703 5700 5698 5696 5694 5692 5691 5691 5689 5689 5688 5688 5687
5746 5748 5752 5755 5757 5760 5756 5756 5758 5762 5768 5767 5765 5761 5759 5757 5756 5752 5749 5746 5744 5742 5740 5739 5736 5733 5729 5725 5722 5719 5716 5713 5710 5708 5705 5702 5699 5697 5694 5691 5689 5688 5686 5685 5684 5683 5682 5682 5681
5746 5742 5744 5750 5752 5754 5754 5746 5752 5761 5762 5758 5758 5757 5755 5754 5753 5750 5748 5745 5743 5740 5738 5735 5733 5729 5725 5721 5718 5715 5712 5709 5707 5704 5701 5698 5696 5693 5690 5687 5684 5682 5681 5680 5678 5677 5676 5676 5675
5738 5729 5725 5740 5747 5750 5744 5732 5750 5757 5755 5751 5751 5751 5750 5749 5749 5749 5747 5743 5741 5737 5734 5731 5729 5725 5720 5716 5714 5711 5708 5705 5703 5699 5696 5694 5691 5688 5685 5682 5679 5677 5675 5674 5672 5670 5669 5668 5667
5719 5712 5717 5728 5741 5742 5736 5731 5745 5751 5748 5746 5746 5746 5746 5744 5744 5745 5743 5741 5738 5735 5731 5727 5724 5720 5716 5712 5709 5706 5703 5700 5698 5695 5692 5689 5686 5683 5680 5677 5674 5672 5670 5668 5666 5664 5662 5661 5660
5711 5712 5715 5718 5733 5733 5728 5728 5739 5744 5743 5741 5741 5741 5741 5740 5740 5741 5740 5737 5734 5730 5727 5723 5720 5716 5712 5708 5703 5699 5697 5695 5693 5690 5687 5684 5681 5678 5675 5672 5669 5667 5664 5661 5659 5657 5656 5654 5654
5721 5715 5711 5719 5732 5726 5723 5725 5732 5737 5736 5735 5735 5735 5736 5737 5738 5737 5735 5733 5729 5725 5721 5718 5714 5712 5708 5703 5699 5694 5691 5689 5687 5685 5682 5680 5676 5673 5670 5667 5664 5661 5658 5655 5653 5651 5649 5647 5646
5718 5712 5711 5718 5727 5724 5717 5720 5728 5732 5732 5733 5732 5732 5733 5732 5731 5730 5729 5727 5724 5721 5718 5715 5712 5708 5704 5701 5697 5693 5689 5685 5682 5679 5676 5674 5672 5669 5666 5662 5659 5656 5653 5649 5647 5644 5642 5640 5638
5717 5713 5713 5713 5717 5718 5713 5710 5720 5727 5730 5731 5731 5732 5732 5730 5727 5726 5724 5722 5720 5717 5715 5712 5708 5704 5700 5696 5691 5687 5683 5679 5675 5673 5670 5668 5666 5663 5660 5657 5654 5651 5647 5643 5641 5639 5636 5632 5630
5711 5725 5721 5715 5703 5694 5701 5686 5709 5717 5720 5724 5725 5727 5727 5727 5725 5723 5721 5718 5716 5714 5712 5708 5705 5700 5696 5692 5687 5682 5677 5673 5671 5668 5665 5663 5660 5657 5654 5651 5648 5645 5641 5638 5636 5633 5630 5627 5624
5721 5726 5719 5711 5700 5689 5691 5683 5695 5709 5711 5718 5722 5724 5725 5724 5723 5720 5719 5716 5713 5710 5706 5703 5700 5695 5691 5687 5684 5679 5674 5670 5666 5663 5660 5657 5654 5651 5649 5646 5643 5639 5636 5633 5630 5627 5625 5622 5619
5725 5714 5705 5693 5685 5676 5686 5679 5685 5699 5710 5717 5721 5722 5722 5721 5720 5717 5715 5712 5708 5705 5701 5698 5694 5689 5685 5681 5678 5673 5669 5665 5661 5657 5653 5650 5648 5645 5643 5641 5637 5634 5630 5628 5625 5622 5620 5617 5614
5713 5693 5673 5670 5661 5668 5684 5679 5686 5709 5716 5717 5718 5718 5719 5718 5715 5713 5710 5707 5703 5699 5696 5692 5688 5683 5680 5676 5672 5669 5664 5660 5656 5652 5648 5645 5641 5639 5637 5635 5632 5628 5625 5623 5620 5617 5614 5612 5609
5704 5693 5669 5659 5656 5664 5676 5674 5695 5714 5716 5717 5716 5715 5714 5713 5711 5709 5706 5702 5698 5694 5691 5687 5682 5678 5674 5670 5667 5663 5659 5655 5652 5648 5644 5641 5638 5635 5633 5629 5627 5624 5621 5618 5615 5612 5609 5607 5605
5699 5688 5688 5668 5663 5656 5665 5680 5698 5710 5709 5708 5708 5708 5707 5706 5705 5703 5700 5697 5693 5689 5686 5682 5678 5673 5670 5665 5661 5658 5653 5650 5646 5643 5640 5637 5634 5632 5628 5625 5622 5620 5616 5613 5610 5607 5605 5603 5600
5703 5689 5671 5661 5652 5648 5661 5670 5679 5696 5699 5700 5700 5700 5701 5701 5699 5697 5695 5691 5688 5684 5680 5675 5673 5669 5665 5661 5657 5654 5649 5646 5642 5640 5636 5633 5630 5628 5624 5621 5618 5615 5612 5609 5606 5603 5601 5598 5596
5688 5681 5670 5657 5654 5647 5647 5664 5695 5696 5698 5696 5697 5697 5696 5695 5694 5692 5689 5687 5683 5678 5674 5670 5666 5663 5659 5655 5652 5649 5645 5641 5638 5635 5632 5629 5626 5623 5620 5617 5614 5611 5608 5605 5602 5599 5597 5594 5592
5689 5680 5667 5657 5653 5648 5645 5662 5701 5698 5696 5695 5694 5694 5692 5690 5689 5686 5684 5681 5677 5673 5669 5666 5662 5658 5654 5651 5647 5643 5640 5636 5633 5630 5628 5625 5622 5620 5617 5613 5610 5607 5604 5602 5598 5596 5594 5591 5588